| time (UTC) | temp F | wind direction | speed MPH | gust MPH | rain 1hr in | rain 24hr in | rain mn in | humidity % | barometer mb |
| 20260831225405 | 54 | 93 | 0.0 | 1.0 | 0.00 | 0.00 | 0.00 | 93 | 1018.2 |
| 20260831224905 | 54 | 94 | 0.0 | 0.0 | 0.00 | 0.00 | 0.00 | 93 | 1018.1 |
| 20260831224404 | 54 | 93 | 0.0 | 0.0 | 0.00 | 0.00 | 0.00 | 93 | 1018.1 |
| 20260831223904 | 54 | 93 | 0.0 | 0.0 | 0.00 | 0.00 | 0.00 | 93 | 1018.0 |
| 20260831223404 | 54 | 93 | 0.0 | 0.0 | 0.00 | 0.00 | 0.00 | 93 | 1018.0 |
| 20260831222905 | 54 | 94 | 0.0 | 0.0 | 0.00 | 0.00 | 0.00 | 92 | 1018.0 |
| 20260831222405 | 54 | 93 | 0.0 | 0.0 | 0.00 | 0.00 | 0.00 | 92 | 1018.0 |
| 20260831221904 | 54 | 94 | 0.0 | 0.0 | 0.00 | 0.00 | 0.00 | 92 | 1017.9 |
| 20260831221405 | 55 | 94 | 0.0 | 0.0 | 0.00 | 0.00 | 0.00 | 92 | 1017.9 |
| 20260831220904 | 55 | 94 | 0.0 | 0.0 | 0.00 | 0.00 | 0.00 | 91 | 1017.9 |
| 20260831215905 | 55 | 93 | 0.0 | 0.0 | 0.00 | 0.00 | 0.00 | 90 | 1017.9 |
| 20260831215404 | 55 | 94 | 0.0 | 0.0 | 0.00 | 0.00 | 0.00 | 90 | 1017.9 |
| 20260831214904 | 55 | 94 | 0.0 | 1.0 | 0.00 | 0.00 | 0.00 | 90 | 1017.9 |
| 20260831214404 | 55 | 93 | 0.0 | 1.0 | 0.00 | 0.00 | 0.00 | 89 | 1017.9 |
| 20260831213906 | 56 | 94 | 0.0 | 0.0 | 0.00 | 0.00 | 0.00 | 89 | 1017.9 |
| 20260831213404 | 56 | 94 | 0.0 | 0.0 | 0.00 | 0.00 | 0.00 | 89 | 1017.8 |
| 20260831212904 | 56 | 93 | 0.0 | 1.0 | 0.00 | 0.00 | 0.00 | 89 | 1017.8 |
| 20260831212405 | 56 | 94 | 0.0 | 1.0 | 0.00 | 0.00 | 0.00 | 89 | 1017.8 |
| 20260831211905 | 56 | 94 | 0.0 | 0.0 | 0.00 | 0.00 | 0.00 | 89 | 1017.7 |
| 20260831211404 | 56 | 94 | 0.0 | 0.0 | 0.00 | 0.00 | 0.00 | 89 | 1017.7 |
| 20260831210904 | 56 | 94 | 0.0 | 0.0 | 0.00 | 0.00 | 0.00 | 89 | 1017.6 |
| 20260831210404 | 56 | 93 | 0.0 | 1.0 | 0.00 | 0.00 | 0.00 | 88 | 1017.6 |
| 20260831205905 | 56 | 93 | 0.0 | 0.0 | 0.00 | 0.00 | 0.00 | 88 | 1017.5 |
| 20260831205405 | 56 | 94 | 0.0 | 0.0 | 0.00 | 0.00 | 0.00 | 88 | 1017.5 |
| 20260831204904 | 56 | 93 | 0.0 | 0.0 | 0.00 | 0.00 | 0.00 | 88 | 1017.4 |
| 20260831204405 | 56 | 91 | 0.0 | 1.0 | 0.00 | 0.00 | 0.00 | 88 | 1017.3 |
| 20260831203904 | 56 | 101 | 0.0 | 0.0 | 0.00 | 0.00 | 0.00 | 87 | 1017.3 |
| 20260831203405 | 56 | 101 | 0.0 | 1.0 | 0.00 | 0.00 | 0.00 | 87 | 1017.3 |
| 20260831202904 | 56 | 101 | 0.0 | 0.0 | 0.00 | 0.00 | 0.00 | 86 | 1017.3 |
| 20260831202404 | 56 | 101 | 0.0 | 2.0 | 0.00 | 0.00 | 0.00 | 86 | 1017.3 |
| 20260831201904 | 56 | 92 | 0.0 | 1.0 | 0.00 | 0.00 | 0.00 | 86 | 1017.2 |
| 20260831201404 | 56 | 92 | 0.0 | 0.0 | 0.00 | 0.00 | 0.00 | 85 | 1017.1 |
| 20260831200904 | 57 | 92 | 0.0 | 0.0 | 0.00 | 0.00 | 0.00 | 85 | 1017.1 |
| 20260831195904 | 57 | 92 | 0.0 | 1.0 | 0.00 | 0.00 | 0.00 | 83 | 1017.0 |
| 20260831195404 | 57 | 92 | 0.0 | 0.0 | 0.00 | 0.00 | 0.00 | 83 | 1016.9 |
| 20260831194904 | 57 | 91 | 0.0 | 1.0 | 0.00 | 0.00 | 0.00 | 83 | 1016.9 |
| 20260831194404 | 58 | 91 | 0.0 | 1.0 | 0.00 | 0.00 | 0.00 | 82 | 1016.9 |
| 20260831193905 | 58 | 91 | 0.0 | 0.0 | 0.00 | 0.00 | 0.00 | 81 | 1016.8 |
| 20260831193404 | 58 | 91 | 0.0 | 0.0 | 0.00 | 0.00 | 0.00 | 80 | 1016.8 |
| 20260831192904 | 59 | 90 | 0.0 | 0.0 | 0.00 | 0.00 | 0.00 | 79 | 1016.8 |
| 20260831192404 | 59 | 90 | 0.0 | 2.0 | 0.00 | 0.00 | 0.00 | 79 | 1016.8 |
| 20260831191904 | 59 | 108 | 0.0 | 2.0 | 0.00 | 0.00 | 0.00 | 78 | 1016.7 |
| 20260831190905 | 59 | 103 | 0.0 | 1.0 | 0.00 | 0.00 | 0.00 | 77 | 1016.6 |
| 20260831190405 | 60 | 103 | 0.0 | 1.0 | 0.00 | 0.00 | 0.00 | 77 | 1016.4 |
| 20260831185904 | 60 | 103 | 0.0 | 1.0 | 0.00 | 0.00 | 0.00 | 77 | 1016.3 |
| 20260831185404 | 60 | 103 | 0.0 | 2.0 | 0.00 | 0.00 | 0.00 | 76 | 1016.2 |
| 20260831184904 | 60 | 134 | 0.0 | 1.0 | 0.00 | 0.00 | 0.00 | 75 | 1016.2 |
| 20260831184404 | 60 | 129 | 0.0 | 2.0 | 0.00 | 0.00 | 0.00 | 76 | 1016.0 |
| 20260831183904 | 61 | 123 | 0.0 | 3.0 | 0.00 | 0.00 | 0.00 | 75 | 1016.0 |
| 20260831183405 | 61 | 107 | 1.0 | 5.0 | 0.00 | 0.00 | 0.00 | 74 | 1016.0 |
| 20260831182405 | 61 | 85 | 0.0 | 3.0 | 0.00 | 0.00 | 0.00 | 74 | 1015.8 |
| 20260831181404 | 61 | 125 | 0.0 | 3.0 | 0.00 | 0.00 | 0.00 | 72 | 1015.8 |
| 20260831180904 | 62 | 125 | 0.0 | 1.0 | 0.00 | 0.00 | 0.00 | 73 | 1015.7 |
| 20260831180404 | 62 | 121 | 0.0 | 1.0 | 0.00 | 0.00 | 0.00 | 72 | 1015.6 |
| 20260831175904 | 62 | 105 | 0.0 | 3.0 | 0.00 | 0.00 | 0.00 | 71 | 1015.5 |
| 20260831175404 | 63 | 119 | 0.0 | 3.0 | 0.00 | 0.00 | 0.00 | 70 | 1015.5 |
| 20260831174904 | 63 | 119 | 1.0 | 3.0 | 0.00 | 0.00 | 0.00 | 70 | 1015.4 |
| 20260831174404 | 63 | 123 | 0.0 | 1.0 | 0.00 | 0.00 | 0.00 | 70 | 1015.4 |
| 20260831173904 | 64 | 122 | 0.0 | 3.0 | 0.00 | 0.00 | 0.00 | 70 | 1015.3 |
| 20260831173404 | 64 | 118 | 0.0 | 2.0 | 0.00 | 0.00 | 0.00 | 70 | 1015.3 |
| 20260831172904 | 64 | 122 | 0.0 | 3.0 | 0.00 | 0.00 | 0.00 | 71 | 1015.2 |
| 20260831172404 | 64 | 132 | 1.0 | 3.0 | 0.00 | 0.00 | 0.00 | 72 | 1015.1 |
| 20260831171904 | 64 | 119 | 1.0 | 7.0 | 0.00 | 0.00 | 0.00 | 72 | 1015.0 |
| 20260831171404 | 64 | 106 | 1.0 | 3.0 | 0.00 | 0.00 | 0.00 | 72 | 1015.0 |
| 20260831170904 | 64 | 114 | 0.0 | 2.0 | 0.00 | 0.00 | 0.00 | 74 | 1015.0 |
| 20260831170404 | 64 | 133 | 0.0 | 2.0 | 0.00 | 0.00 | 0.00 | 74 | 1014.9 |
| 20260831165904 | 64 | 100 | 1.0 | 3.0 | 0.00 | 0.00 | 0.00 | 74 | 1014.8 |
| 20260831165404 | 65 | 121 | 0.0 | 1.0 | 0.00 | 0.00 | 0.00 | 74 | 1014.8 |
| 20260831164904 | 65 | 122 | 1.0 | 5.0 | 0.00 | 0.00 | 0.00 | 73 | 1014.8 |
| 20260831163404 | 65 | 112 | 0.0 | 1.0 | 0.00 | 0.00 | 0.00 | 76 | 1014.5 |
| 20260831162904 | 65 | 110 | 0.0 | 2.0 | 0.00 | 0.00 | 0.00 | 77 | 1014.5 |
| 20260831162404 | 65 | 128 | 0.0 | 1.0 | 0.00 | 0.00 | 0.00 | 77 | 1014.5 |
| 20260831161904 | 65 | 136 | 0.0 | 3.0 | 0.00 | 0.00 | 0.00 | 75 | 1014.5 |
| 20260831160904 | 65 | 129 | 0.0 | 3.0 | 0.00 | 0.00 | 0.00 | 76 | 1014.4 |
| 20260831160404 | 65 | 121 | 0.0 | 2.0 | 0.00 | 0.00 | 0.00 | 76 | 1014.4 |
| 20260831155904 | 65 | 144 | 0.0 | 2.0 | 0.00 | 0.00 | 0.00 | 76 | 1014.4 |
| 20260831155404 | 65 | 106 | 1.0 | 5.0 | 0.00 | 0.00 | 0.00 | 75 | 1014.3 |
| 20260831153905 | 65 | 109 | 1.0 | 7.0 | 0.00 | 0.00 | 0.00 | 80 | 1014.1 |
| 20260831153404 | 65 | 112 | 0.0 | 1.0 | 0.00 | 0.00 | 0.00 | 82 | 1014.0 |
| 20260831152404 | 65 | 128 | 0.0 | 2.0 | 0.00 | 0.00 | 0.00 | 81 | 1013.8 |
| 20260831151904 | 65 | 120 | 0.0 | 2.0 | 0.00 | 0.00 | 0.00 | 81 | 1013.8 |
| 20260831151404 | 65 | 109 | 0.0 | 1.0 | 0.00 | 0.00 | 0.00 | 80 | 1013.7 |
| 20260831150405 | 66 | 114 | 0.0 | 1.0 | 0.00 | 0.00 | 0.00 | 81 | 1013.5 |
| 20260831145905 | 66 | 128 | 0.0 | 2.0 | 0.00 | 0.00 | 0.00 | 82 | 1013.4 |
| 20260831145405 | 66 | 102 | 0.0 | 1.0 | 0.00 | 0.00 | 0.00 | 80 | 1013.4 |
| 20260831144905 | 66 | 102 | 0.0 | 3.0 | 0.00 | 0.00 | 0.00 | 78 | 1013.3 |
| 20260831143905 | 66 | 117 | 0.0 | 5.0 | 0.00 | 0.00 | 0.00 | 79 | 1013.2 |
| 20260831143406 | 66 | 116 | 1.0 | 3.0 | 0.00 | 0.00 | 0.00 | 81 | 1013.1 |
| 20260831142906 | 66 | 114 | 0.0 | 3.0 | 0.00 | 0.00 | 0.00 | 83 | 1013.0 |
| 20260831141905 | 66 | 139 | 0.0 | 2.0 | 0.00 | 0.00 | 0.00 | 83 | 1013.0 |
| 20260831141406 | 66 | 129 | 0.0 | 1.0 | 0.00 | 0.00 | 0.00 | 83 | 1013.0 |
| 20260831140905 | 66 | 117 | 0.0 | 1.0 | 0.00 | 0.00 | 0.00 | 81 | 1012.8 |
| 20260831140405 | 66 | 147 | 0.0 | 2.0 | 0.00 | 0.00 | 0.00 | 84 | 1012.8 |
| 20260831135905 | 65 | 128 | 0.0 | 1.0 | 0.00 | 0.00 | 0.00 | 84 | 1012.8 |
| 20260831135405 | 65 | 89 | 0.0 | 1.0 | 0.00 | 0.00 | 0.00 | 83 | 1012.8 |
| 20260831134905 | 65 | 105 | 0.0 | 3.0 | 0.00 | 0.00 | 0.00 | 82 | 1012.7 |
| 20260831134405 | 66 | 104 | 0.0 | 3.0 | 0.00 | 0.00 | 0.00 | 81 | 1012.6 |
| 20260831133906 | 66 | 124 | 1.0 | 3.0 | 0.00 | 0.00 | 0.00 | 81 | 1012.5 |
| 20260831132905 | 67 | 128 | 1.0 | 3.0 | 0.00 | 0.00 | 0.00 | 82 | 1012.3 |
| 20260831132405 | 66 | 116 | 0.0 | 1.0 | 0.00 | 0.00 | 0.00 | 86 | 1012.2 |
| 20260831131906 | 66 | 109 | 1.0 | 3.0 | 0.00 | 0.00 | 0.00 | 83 | 1012.2 |
| 20260831131406 | 66 | 117 | 0.0 | 3.0 | 0.00 | 0.00 | 0.00 | 82 | 1012.2 |
| 20260831130905 | 67 | 125 | 0.0 | 2.0 | 0.00 | 0.00 | 0.00 | 83 | 1012.1 |
| 20260831130405 | 66 | 50 | 0.0 | 1.0 | 0.00 | 0.00 | 0.00 | 85 | 1012.0 |
| 20260831125905 | 66 | 123 | 0.0 | 1.0 | 0.00 | 0.00 | 0.00 | 86 | 1012.0 |
| 20260831125406 | 66 | 141 | 0.0 | 1.0 | 0.00 | 0.00 | 0.00 | 89 | 1012.0 |
| 20260831124906 | 65 | 26 | 0.0 | 3.0 | 0.00 | 0.00 | 0.00 | 91 | 1012.0 |
| 20260831124406 | 65 | 94 | 0.0 | 2.0 | 0.00 | 0.00 | 0.00 | 92 | 1012.0 |
| 20260831123905 | 64 | 103 | 0.0 | 2.0 | 0.00 | 0.00 | 0.00 | 92 | 1011.9 |
| 20260831123405 | 64 | 103 | 0.0 | 2.0 | 0.00 | 0.00 | 0.00 | 92 | 1011.8 |
| 20260831122405 | 64 | 122 | 1.0 | 3.0 | 0.00 | 0.00 | 0.00 | 93 | 1011.6 |
| 20260831121905 | 64 | 100 | 0.0 | 1.0 | 0.00 | 0.00 | 0.00 | 94 | 1011.6 |
| 20260831120905 | 64 | 115 | 0.0 | 1.0 | 0.00 | 0.00 | 0.00 | 96 | 1011.4 |
| 20260831120405 | 63 | 106 | 0.0 | 3.0 | 0.00 | 0.00 | 0.00 | 95 | 1011.3 |
| 20260831115905 | 63 | 133 | 0.0 | 1.0 | 0.00 | 0.00 | 0.00 | 93 | 1011.2 |
| 20260831115405 | 63 | 120 | 0.0 | 1.0 | 0.00 | 0.00 | 0.00 | 91 | 1011.3 |
| 20260831114906 | 64 | 134 | 0.0 | 2.0 | 0.00 | 0.00 | 0.00 | 88 | 1011.2 |
| 20260831114406 | 65 | 102 | 0.0 | 3.0 | 0.00 | 0.00 | 0.00 | 86 | 1011.2 |
| 20260831113405 | 67 | 115 | 2.0 | 7.0 | 0.00 | 0.00 | 0.00 | 79 | 1010.7 |
| 20260831112905 | 68 | 125 | 1.0 | 3.0 | 0.00 | 0.00 | 0.00 | 77 | 1010.6 |
| 20260831112405 | 68 | 118 | 0.0 | 3.0 | 0.00 | 0.00 | 0.00 | 78 | 1010.5 |
| 20260831111906 | 68 | 117 | 0.0 | 3.0 | 0.00 | 0.00 | 0.00 | 78 | 1010.3 |
| 20260831111405 | 68 | 125 | 1.0 | 3.0 | 0.00 | 0.00 | 0.00 | 79 | 1010.3 |
| 20260831110905 | 68 | 128 | 0.0 | 3.0 | 0.00 | 0.00 | 0.00 | 77 | 1010.2 |
| 20260831110405 | 69 | 113 | 0.0 | 2.0 | 0.00 | 0.00 | 0.00 | 80 | 1010.1 |
| 20260831105905 | 68 | 143 | 0.0 | 2.0 | 0.00 | 0.00 | 0.00 | 80 | 1010.1 |
| 20260831105405 | 68 | 127 | 0.0 | 2.0 | 0.00 | 0.00 | 0.00 | 81 | 1010.0 |
| 20260831104905 | 67 | 87 | 0.0 | 5.0 | 0.00 | 0.00 | 0.00 | 83 | 1009.9 |
| 20260831104405 | 67 | 113 | 0.0 | 3.0 | 0.00 | 0.00 | 0.00 | 83 | 1009.9 |
| 20260831103406 | 66 | 109 | 1.0 | 6.0 | 0.00 | 0.00 | 0.00 | 85 | 1009.9 |
| 20260831102906 | 66 | 94 | 0.0 | 3.0 | 0.00 | 0.00 | 0.00 | 87 | 1009.8 |
| 20260831102405 | 66 | 125 | 0.0 | 2.0 | 0.00 | 0.00 | 0.00 | 88 | 1009.8 |
| 20260831101905 | 66 | 119 | 0.0 | 2.0 | 0.00 | 0.00 | 0.00 | 87 | 1009.7 |
| 20260831101405 | 66 | 115 | 0.0 | 3.0 | 0.00 | 0.00 | 0.00 | 87 | 1009.6 |
| 20260831100905 | 66 | 136 | 0.0 | 3.0 | 0.00 | 0.00 | 0.00 | 90 | 1009.6 |
| 20260831095905 | 64 | 106 | 1.0 | 3.0 | 0.00 | 0.00 | 0.00 | 91 | 1009.5 |
| 20260831095405 | 64 | 127 | 0.0 | 2.0 | 0.00 | 0.00 | 0.00 | 90 | 1009.5 |
| 20260831094908 | 64 | 119 | 0.0 | 1.0 | 0.00 | 0.00 | 0.00 | 91 | 1009.4 |
| 20260831094405 | 64 | 107 | 0.0 | 2.0 | 0.00 | 0.00 | 0.00 | 93 | 1009.4 |
| 20260831093405 | 63 | 98 | 0.0 | 2.0 | 0.00 | 0.00 | 0.00 | 96 | 1009.3 |
| 20260831092905 | 62 | 130 | 0.0 | 2.0 | 0.00 | 0.00 | 0.00 | 95 | 1009.2 |
| 20260831092405 | 62 | 121 | 0.0 | 2.0 | 0.00 | 0.00 | 0.00 | 93 | 1009.1 |
| 20260831091905 | 63 | 115 | 0.0 | 1.0 | 0.00 | 0.00 | 0.00 | 92 | 1009.1 |
| 20260831090905 | 63 | 99 | 0.0 | 1.0 | 0.00 | 0.00 | 0.00 | 91 | 1008.8 |
| 20260831085405 | 63 | 122 | 0.0 | 1.0 | 0.00 | 0.00 | 0.00 | 93 | 1008.6 |
| 20260831084905 | 63 | 123 | 0.0 | 3.0 | 0.00 | 0.00 | 0.00 | 95 | 1008.5 |
| 20260831084405 | 62 | 97 | 0.0 | 2.0 | 0.00 | 0.00 | 0.00 | 95 | 1008.4 |
| 20260831083905 | 62 | 108 | 0.0 | 1.0 | 0.00 | 0.00 | 0.00 | 96 | 1008.4 |
| 20260831083405 | 62 | 132 | 0.0 | 3.0 | 0.00 | 0.00 | 0.00 | 95 | 1008.4 |
| 20260831082905 | 62 | 110 | 0.0 | 2.0 | 0.00 | 0.00 | 0.00 | 97 | 1008.3 |
| 20260831082405 | 62 | 85 | 0.0 | 0.0 | 0.00 | 0.00 | 0.00 | 99 | 1008.2 |
| 20260831081905 | 61 | 85 | 0.0 | 1.0 | 0.00 | 0.00 | 0.00 | 99 | 1008.1 |
| 20260831080905 | 60 | 96 | 0.0 | 0.0 | 0.00 | 0.00 | 0.00 | 99 | 1008.0 |
| 20260831080405 | 60 | 96 | 0.0 | 2.0 | 0.00 | 0.00 | 0.00 | 100 | 1007.9 |
| 20260831075906 | 59 | 96 | 0.0 | 1.0 | 0.00 | 0.00 | 0.00 | 100 | 1007.8 |
| 20260831075405 | 59 | 96 | 0.0 | 1.0 | 0.00 | 0.00 | 0.00 | 100 | 1007.7 |
| 20260831074905 | 59 | 96 | 0.0 | 1.0 | 0.00 | 0.00 | 0.00 | 100 | 1007.6 |
| 20260831074405 | 58 | 96 | 0.0 | 1.0 | 0.00 | 0.00 | 0.00 | 100 | 1007.4 |
| 20260831073905 | 57 | 101 | 0.0 | 2.0 | 0.00 | 0.00 | 0.00 | 100 | 1007.3 |
| 20260831073405 | 57 | 109 | 0.0 | 1.0 | 0.00 | 0.00 | 0.00 | 100 | 1007.2 |
| 20260831072905 | 57 | 113 | 0.0 | 3.0 | 0.00 | 0.00 | 0.00 | 100 | 1007.2 |
| 20260831071905 | 55 | 108 | 0.0 | 1.0 | 0.00 | 0.00 | 0.00 | 100 | 1007.0 |
| 20260831070905 | 54 | 110 | 0.0 | 3.0 | 0.00 | 0.00 | 0.00 | 100 | 1006.9 |
| 20260831070405 | 54 | 113 | 0.0 | 1.0 | 0.00 | 0.00 | 0.00 | 100 | 1006.9 |
| 20260831065905 | 54 | 131 | 0.0 | 1.0 | 0.00 | 0.00 | 0.00 | 100 | 1006.8 |
| 20260831065405 | 54 | 126 | 0.0 | 1.0 | 0.00 | 0.00 | 0.00 | 100 | 1006.8 |
| 20260831064405 | 53 | 131 | 0.0 | 1.0 | 0.00 | 0.00 | 0.00 | 100 | 1006.5 |
| 20260831063905 | 53 | 124 | 0.0 | 1.0 | 0.00 | 0.00 | 0.00 | 100 | 1006.5 |
| 20260831063405 | 53 | 124 | 0.0 | 0.0 | 0.00 | 0.00 | 0.00 | 100 | 1006.3 |
| 20260831062905 | 53 | 126 | 0.0 | 2.0 | 0.00 | 0.00 | 0.00 | 100 | 1006.3 |
| 20260831062405 | 53 | 118 | 0.0 | 1.0 | 0.00 | 0.00 | 0.00 | 100 | 1006.2 |
| 20260831055907 | 53 | 117 | 0.0 | 0.0 | 0.00 | 0.00 | 0.00 | 100 | 1005.7 |
| 20260831055405 | 53 | 117 | 0.0 | 1.0 | 0.00 | 0.00 | 0.00 | 100 | 1005.7 |
| 20260831054405 | 53 | 110 | 0.0 | 0.0 | 0.00 | 0.00 | 0.00 | 100 | 1005.4 |
| 20260831053905 | 53 | 110 | 0.0 | 1.0 | 0.00 | 0.00 | 0.00 | 100 | 1005.4 |
| 20260831052906 | 53 | 94 | 0.0 | 1.0 | 0.00 | 0.00 | 0.00 | 100 | 1005.2 |
| 20260831052405 | 53 | 94 | 0.0 | 1.0 | 0.00 | 0.00 | 0.00 | 100 | 1005.2 |
| 20260831051905 | 53 | 94 | 0.0 | 1.0 | 0.00 | 0.00 | 0.00 | 100 | 1005.1 |
| 20260831051405 | 53 | 93 | 0.0 | 1.0 | 0.00 | 0.00 | 0.00 | 100 | 1005.0 |
| 20260831050904 | 53 | 94 | 0.0 | 1.0 | 0.00 | 0.00 | 0.00 | 100 | 1004.9 |
| 20260831050405 | 53 | 95 | 0.0 | 1.0 | 0.00 | 0.00 | 0.00 | 100 | 1004.7 |
| 20260831045906 | 53 | 92 | 0.0 | 0.0 | 0.00 | 0.00 | 0.00 | 100 | 1004.6 |
| 20260831045404 | 53 | 92 | 0.0 | 1.0 | 0.00 | 0.00 | 0.00 | 100 | 1004.6 |
| 20260831044905 | 53 | 102 | 0.0 | 1.0 | 0.00 | 0.00 | 0.00 | 100 | 1004.6 |
| 20260831043905 | 54 | 101 | 0.0 | 1.0 | 0.00 | 0.00 | 0.00 | 100 | 1004.4 |
| 20260831043405 | 54 | 102 | 0.0 | 0.0 | 0.00 | 0.00 | 0.00 | 100 | 1004.3 |
| 20260831042905 | 54 | 105 | 0.0 | 1.0 | 0.00 | 0.00 | 0.00 | 100 | 1004.2 |
| 20260831041905 | 54 | 105 | 0.0 | 1.0 | 0.00 | 0.00 | 0.00 | 100 | 1004.2 |
| 20260831040405 | 54 | 93 | 0.0 | 1.0 | 0.00 | 0.00 | 0.00 | 100 | 1004.2 |
| 20260831035904 | 54 | 92 | 0.0 | 0.0 | 0.00 | 0.00 | 0.00 | 100 | 1004.2 |
| 20260831035405 | 54 | 101 | 0.0 | 0.0 | 0.00 | 0.00 | 0.00 | 100 | 1004.2 |
| 20260831034905 | 54 | 101 | 0.0 | 1.0 | 0.00 | 0.00 | 0.00 | 100 | 1004.1 |
| 20260831032905 | 54 | 107 | 0.0 | 1.0 | 0.00 | 0.00 | 0.00 | 100 | 1004.0 |
| 20260831032405 | 54 | 100 | 0.0 | 3.0 | 0.00 | 0.00 | 0.00 | 100 | 1004.0 |
| 20260831031905 | 54 | 102 | 0.0 | 1.0 | 0.00 | 0.00 | 0.00 | 99 | 1004.0 |
| 20260831031405 | 54 | 112 | 0.0 | 2.0 | 0.00 | 0.00 | 0.00 | 99 | 1003.9 |
| 20260831030905 | 54 | 99 | 0.0 | 1.0 | 0.00 | 0.00 | 0.00 | 99 | 1003.9 |
| 20260831030406 | 54 | 97 | 0.0 | 1.0 | 0.00 | 0.00 | 0.00 | 99 | 1003.8 |
| 20260831025905 | 54 | 98 | 0.0 | 1.0 | 0.00 | 0.00 | 0.00 | 99 | 1003.7 |
| 20260831025405 | 54 | 126 | 0.0 | 1.0 | 0.00 | 0.00 | 0.00 | 99 | 1003.7 |
| 20260831024905 | 54 | 89 | 0.0 | 1.0 | 0.00 | 0.00 | 0.00 | 99 | 1003.6 |
| 20260831024405 | 54 | 120 | 0.0 | 2.0 | 0.00 | 0.00 | 0.00 | 99 | 1003.6 |
| 20260831023905 | 54 | 124 | 0.0 | 2.0 | 0.00 | 0.00 | 0.00 | 99 | 1003.7 |
| 20260831023405 | 55 | 114 | 0.0 | 2.0 | 0.00 | 0.00 | 0.00 | 99 | 1003.7 |
| 20260831022904 | 55 | 84 | 0.0 | 2.0 | 0.00 | 0.00 | 0.00 | 99 | 1003.6 |
| 20260831022405 | 55 | 130 | 0.0 | 1.0 | 0.00 | 0.00 | 0.00 | 99 | 1003.6 |
| 20260831020905 | 55 | 112 | 0.0 | 2.0 | 0.00 | 0.00 | 0.00 | 99 | 1003.3 |
| 20260831020405 | 55 | 97 | 0.0 | 1.0 | 0.00 | 0.00 | 0.00 | 99 | 1003.4 |
| 20260831015904 | 55 | 99 | 0.0 | 0.0 | 0.00 | 0.00 | 0.00 | 99 | 1003.2 |
| 20260831014905 | 55 | 101 | 0.0 | 3.0 | 0.00 | 0.00 | 0.00 | 99 | 1003.2 |
| 20260831014405 | 55 | 118 | 0.0 | 1.0 | 0.00 | 0.00 | 0.00 | 99 | 1003.3 |
| 20260831013905 | 55 | 105 | 0.0 | 0.0 | 0.00 | 0.00 | 0.00 | 99 | 1003.4 |
| 20260831012404 | 55 | 105 | 0.0 | 1.0 | 0.00 | 0.00 | 0.00 | 99 | 1003.2 |
| 20260831011905 | 55 | 105 | 0.0 | 0.0 | 0.00 | 0.00 | 0.00 | 99 | 1003.1 |
| 20260831011405 | 55 | 105 | 0.0 | 1.0 | 0.00 | 0.00 | 0.00 | 98 | 1003.1 |
| 20260831010905 | 55 | 93 | 0.0 | 1.0 | 0.00 | 0.00 | 0.00 | 98 | 1003.0 |
| 20260831010405 | 55 | 87 | 0.0 | 2.0 | 0.00 | 0.00 | 0.00 | 99 | 1003.0 |
| 20260831005905 | 55 | 99 | 0.0 | 1.0 | 0.00 | 0.00 | 0.00 | 99 | 1002.9 |
| 20260831005405 | 55 | 99 | 0.0 | 1.0 | 0.00 | 0.00 | 0.00 | 99 | 1002.8 |
| 20260831004904 | 55 | 99 | 0.0 | 0.0 | 0.00 | 0.00 | 0.00 | 99 | 1002.7 |
| 20260831003905 | 55 | 99 | 0.0 | 0.0 | 0.00 | 0.00 | 0.00 | 99 | 1002.5 |
| 20260831003405 | 56 | 99 | 0.0 | 0.0 | 0.00 | 0.00 | 0.00 | 99 | 1002.7 |
| 20260831002905 | 56 | 99 | 0.0 | 0.0 | 0.00 | 0.00 | 0.00 | 99 | 1002.6 |
| 20260831002404 | 56 | 99 | 0.0 | 0.0 | 0.00 | 0.00 | 0.00 | 99 | 1002.6 |
| 20260831001905 | 56 | 99 | 0.0 | 0.0 | 0.00 | 0.00 | 0.00 | 99 | 1002.7 |
| 20260831001405 | 56 | 99 | 0.0 | 2.0 | 0.00 | 0.00 | 0.00 | 98 | 1002.9 |
| 20260831000904 | 56 | 130 | 0.0 | 1.0 | 0.00 | 0.00 | 0.00 | 98 | 1002.8 |
| 20260830235904 | 56 | 101 | 0.0 | 3.0 | 0.00 | 0.00 | 0.00 | 99 | 1002.8 |
| 20260830235404 | 56 | 92 | 0.0 | 3.0 | 0.00 | 0.00 | 0.00 | 99 | 1002.7 |
| 20260830234904 | 56 | 108 | 0.0 | 1.0 | 0.00 | 0.00 | 0.00 | 98 | 1002.5 |
| 20260830234404 | 56 | 108 | 0.0 | 1.0 | 0.00 | 0.00 | 0.00 | 98 | 1002.6 |
| 20260830233904 | 56 | 108 | 0.0 | 1.0 | 0.00 | 0.00 | 0.00 | 98 | 1002.6 |
| 20260830233404 | 56 | 108 | 0.0 | 1.0 | 0.00 | 0.00 | 0.00 | 98 | 1002.6 |
| 20260830232904 | 56 | 108 | 0.0 | 3.0 | 0.00 | 0.00 | 0.00 | 98 | 1002.7 |
| 20260830232404 | 57 | 96 | 0.0 | 2.0 | 0.00 | 0.00 | 0.00 | 98 | 1002.8 |
| 20260830231905 | 57 | 94 | 0.0 | 2.0 | 0.00 | 0.00 | 0.00 | 98 | 1002.6 |
| 20260830231404 | 57 | 95 | 0.0 | 5.0 | 0.00 | 0.00 | 0.00 | 98 | 1002.6 |
| 20260830230904 | 58 | 120 | 0.0 | 1.0 | 0.00 | 0.00 | 0.00 | 99 | 1002.7 |
| 20260830230404 | 58 | 95 | 0.0 | 2.0 | 0.00 | 0.00 | 0.00 | 99 | 1002.7 |